This is the latest recevied weather packets stored in our database for station/object KD7JB. If no packets are shown the sender has not sent any weather packets the latest 10 day(s).
| Time | Temp. | Humidity | Pressure | Rain* | Wind** | Luminosity | Snow |
|---|---|---|---|---|---|---|---|
| 1777797195 | 15° C | 48% | 1178.2 hPa | 0 mm | - | 0 W/m² | - |
| 1777796891 | 14.44° C | 48% | 1178.5 hPa | 0 mm | - | 0 W/m² | - |
| 1777796588 | 14.44° C | 49% | 1178.4 hPa | 0 mm | - | 0 W/m² | - |
| 1777796284 | 14.44° C | 48% | 1178.5 hPa | 0 mm | - | 0 W/m² | - |
| 1777795980 | 13.89° C | 49% | 1178.4 hPa | 0 mm | - | 0 W/m² | - |
| 1777795676 | 13.89° C | 50% | 1178.4 hPa | 0 mm | - | 0 W/m² | - |
| 1777795374 | 13.89° C | 52% | 1178.7 hPa | 0 mm | - | 0 W/m² | - |
| 1777795069 | 14.44° C | 51% | 1178.4 hPa | 0 mm | - | 0 W/m² | - |
| 1777794766 | 14.44° C | 50% | 1178.4 hPa | 0 mm | - | 0 W/m² | - |
| 1777794462 | 15.56° C | 48% | 1178.7 hPa | 0 mm | - | 0 W/m² | - |
| 1777794158 | 16.11° C | 46% | 1178.3 hPa | 0 mm | - | 0 W/m² | - |
| 1777793854 | 16.11° C | 45% | 1178.4 hPa | 0 mm | - | 0 W/m² | - |
| 1777793552 | 16.11° C | 45% | 1178.3 hPa | 0 mm | - | 0 W/m² | - |
| 1777793250 | 16.11° C | 46% | 1178.4 hPa | 0 mm | - | 0 W/m² | - |
| 1777792946 | 16.11° C | 45% | 1178.3 hPa | 0 mm | - | 0 W/m² | - |
| 1777792643 | 16.11° C | 45% | 1178.3 hPa | 0 mm | - | 0 W/m² | - |
| 1777792340 | 16.11° C | 46% | 1178.4 hPa | 0 mm | - | 0 W/m² | - |
| 1777792037 | 16.11° C | 45% | 1178.4 hPa | 0 mm | - | 0 W/m² | - |
| 1777791735 | 16.11° C | 45% | 1178.4 hPa | 0 mm | - | 0 W/m² | - |
| 1777791433 | 16.11° C | 45% | 1178.3 hPa | 0 mm | - | 0 W/m² | - |
| 1777791130 | 16.11° C | 45% | 1178.3 hPa | 0 mm | - | 0 W/m² | - |
| 1777790826 | 16.11° C | 45% | 1178.3 hPa | 0 mm | - | 0 W/m² | - |
| 1777790524 | 16.67° C | 44% | 1178.3 hPa | 0 mm | - | 0 W/m² | - |
| 1777790220 | 16.11° C | 44% | 1178.3 hPa | 0 mm | - | 0 W/m² | - |
| 1777789920 | 16.67° C | 43% | 1178.3 hPa | 0 mm | - | 0 W/m² | - |
* Rain latest hour (hover to see other rain measurements)
** Current wind speed in m/s (hover to see current wind gust speed)